SV2JU-2 Weather Reports


time (UTC)temp
C
wind
direction
speed
KPH
gust
KPH
rain 1hr
cm
rain 24hr
cm
rain mn
cm
humidity
%
barometer
mb
20260506152704 23 157 6.4 12.9 0.00 0.00 0.00 10 1014.0
20260506151433 23 159 8.0 11.3 0.00 0.00 0.00 10 1014.0
20260506150204 23 166 9.7 17.7 0.00 0.00 0.00 11 1014.0
20260506144933 23 161 9.7 19.3 0.00 0.00 0.00 11 1014.0
20260506143704 23 155 8.0 16.1 0.00 0.00 0.00 11 1014.0
20260506142433 24 171 8.0 16.1 0.00 0.00 0.00 11 1014.0
20260506141204 24 159 8.0 16.1 0.00 0.00 0.00 11 1014.0
20260506135935 24 151 6.4 12.9 0.00 0.00 0.00 11 1014.0
20260506134704 24 164 9.7 12.9 0.00 0.00 0.00 13 1014.0
20260506134436 24 165 6.4 16.1 0.00 0.00 0.00 13 1014.0
20260506133206 24 153 6.4 12.9 0.00 0.00 0.00 14 1014.0
20260506131936 24 161 11.3 19.3 0.00 0.00 0.00 13 1015.0
20260506130706 24 170 9.7 12.9 0.00 0.00 0.00 14 1015.0
20260506125435 24 159 6.4 12.9 0.00 0.00 0.00 14 1015.0
20260506124206 24 164 9.7 16.1 0.00 0.00 0.00 14 1015.0
20260506122935 24 169 8.0 14.5 0.00 0.00 0.00 16 1015.0
20260506120435 23 236 6.4 12.9 0.00 0.00 0.00 21 1015.0
20260506113935 23 183 4.8 9.7 0.00 0.00 0.00 21 1015.0
20260506112706 23 250 4.8 9.7 0.00 0.00 0.00 20 1015.0
20260506111435 23 247 6.4 11.3 0.00 0.00 0.00 20 1016.0
20260506110206 23 236 6.4 12.9 0.00 0.00 0.00 20 1016.0
20260506104935 23 251 6.4 11.3 0.00 0.00 0.00 18 1016.0
20260506103706 23 250 6.4 12.9 0.00 0.00 0.00 18 1016.0
20260506102435 23 229 6.4 9.7 0.00 0.00 0.00 19 1016.0
20260506101208 23 239 6.4 9.7 0.00 0.00 0.00 18 1016.0
20260506095935 23 199 4.8 11.3 0.00 0.00 0.00 19 1016.0
20260506094706 23 183 6.4 9.7 0.00 0.00 0.00 19 1016.0
20260506092206 22 165 3.2 9.7 0.00 0.00 0.00 18 1016.0
20260506090935 22 172 4.8 9.7 0.00 0.00 0.00 18 1016.0
20260506085705 22 227 3.2 8.0 0.00 0.00 0.00 18 1016.0
20260506084435 22 195 4.8 8.0 0.00 0.00 0.00 18 1016.0
20260506083205 22 240 4.8 9.7 0.00 0.00 0.00 20 1016.0
20260506081935 22 231 4.8 9.7 0.00 0.00 0.00 21 1016.0
20260506080705 22 190 3.2 8.0 0.00 0.00 0.00 21 1016.0
20260506044705 18 0 0.0 0.0 0.00 0.00 0.00 29 1015.0
20260506043434 18 5 0.0 3.2 0.00 0.00 0.00 30 1015.0
20260506042204 17 0 0.0 0.0 0.00 0.00 0.00 31 1015.0
20260506040934 16 0 0.0 0.0 0.00 0.00 0.00 32 1015.0
20260506035704 16 0 0.0 0.0 0.00 0.00 0.00 32 1015.0
20260506034433 16 0 0.0 0.0 0.00 0.00 0.00 32 1015.0
20260506033204 16 358 0.0 3.2 0.00 0.00 0.00 32 1015.0
20260506031933 16 36 0.0 3.2 0.00 0.00 0.00 31 1015.0
20260506030704 16 11 0.0 4.8 0.00 0.00 0.00 31 1015.0
20260506025433 16 0 0.0 0.0 0.00 0.00 0.00 31 1015.0
20260506024204 16 0 0.0 0.0 0.00 0.00 0.00 31 1015.0
20260506022933 16 0 0.0 0.0 0.00 0.00 0.00 31 1015.0
20260506021704 16 0 0.0 0.0 0.00 0.00 0.00 31 1015.0
20260506020433 16 0 0.0 0.0 0.00 0.00 0.00 32 1015.0
20260506015204 16 0 0.0 0.0 0.00 0.00 0.00 31 1015.0
20260506013933 16 0 0.0 0.0 0.00 0.00 0.00 31 1015.0
20260506011433 16 0 0.0 0.0 0.00 0.00 0.00 29 1015.0
20260506010204 17 0 0.0 0.0 0.00 0.00 0.00 25 1015.0
20260506004933 17 216 1.6 4.8 0.00 0.00 0.00 20 1015.0
20260506003703 17 0 0.0 0.0 0.00 0.00 0.00 17 1015.0
20260506002433 17 0 0.0 0.0 0.00 0.00 0.00 16 1015.0
20260505235932 17 0 0.0 0.0 0.00 0.00 0.00 14 1015.0
20260505234703 17 0 0.0 0.0 0.00 0.00 0.00 13 1015.0
20260505233432 18 0 0.0 0.0 0.00 0.00 0.00 12 1015.0
20260505232203 18 0 0.0 0.0 0.00 0.00 0.00 12 1015.0
20260505230932 18 0 0.0 0.0 0.00 0.00 0.00 13 1015.0
20260505225703 18 0 0.0 0.0 0.00 0.00 0.00 13 1015.0
20260505224432 18 0 0.0 0.0 0.00 0.00 0.00 13 1015.0
20260505223203 18 0 0.0 0.0 0.00 0.00 0.00 13 1015.0
20260505221932 18 0 0.0 0.0 0.00 0.00 0.00 12 1015.0
20260505220703 18 0 0.0 0.0 0.00 0.00 0.00 11 1015.0
20260505215432 18 0 0.0 0.0 0.00 0.00 0.00 12 1015.0
20260505214203 18 13 1.6 4.8 0.00 0.00 0.00 12 1015.0
20260505212932 19 13 0.0 3.2 0.00 0.00 0.00 10 1015.0
20260505211703 19 9 3.2 4.8 0.00 0.00 0.00 10 1014.0
20260505210432 19 0 0.0 0.0 0.00 0.00 0.00 9 1014.0
20260505205203 20 0 0.0 0.0 0.00 0.00 0.00 8 1014.0
20260505203932 20 0 0.0 0.0 0.00 0.00 0.00 6 1014.0
20260505202705 20 0 0.0 0.0 0.00 0.00 0.00 6 1014.0
20260505174431 21 0 0.0 0.0 0.00 0.00 0.00 7 1013.0
20260505173202 21 0 0.0 0.0 0.00 0.00 0.00 8 1013.0
20260505171931 22 0 0.0 0.0 0.00 0.00 0.00 8 1013.0
20260505165431 22 0 0.0 0.0 0.00 0.00 0.00 7 1013.0
20260505162931 22 136 0.0 6.4 0.00 0.00 0.00 6 1013.0
20260505161702 23 128 0.0 6.4 0.00 0.00 0.00 6 1013.0
20260505160431 23 159 3.2 9.7 0.00 0.00 0.00 6 1013.0